THY6805 LTFO-LTAC

Flight info

Callsign THY6805
Flight time 1h 14m
Altitude 34000
Route LTFO/06 N0445F340 ZUBR1M ZUBRE G67 ATPUM UN37 TBN UW71 ILHAN ILHA1P LTAC/21C
Aircraft B738/M-CDT/C

Departure

Time 2026-05-07 15:59
Airport Rize–Artvin Airport (LTFO)

Arrival

Time 2026-05-07 17:14
Airport Esenboğa International Airport (LTAC)
Time Latitude Longitude Altitude Speed Heading
2026-05-07 15:47 41.17563 40.84592 55 ft 0 kts 161°
2026-05-07 15:55 41.17562 40.84591 56 ft 0 kts 177°
2026-05-07 15:56 41.17560 40.84584 55 ft 1 kts 251°
2026-05-07 15:56 41.17569 40.84562 54 ft 6 kts 301°
2026-05-07 15:56 41.17626 40.84507 57 ft 14 kts 336°
2026-05-07 15:56 41.17741 40.84445 57 ft 21 kts 338°
2026-05-07 15:57 41.17822 40.84283 61 ft 27 kts 259°
2026-05-07 15:57 41.17763 40.84043 60 ft 26 kts 251°
2026-05-07 15:57 41.17706 40.83821 57 ft 25 kts 251°
2026-05-07 15:57 41.17653 40.83611 61 ft 23 kts 251°
2026-05-07 15:58 41.17597 40.83414 61 ft 22 kts 245°
2026-05-07 15:58 41.17525 40.83290 54 ft 12 kts 231°
2026-05-07 15:58 41.17541 40.83218 59 ft 10 kts
2026-05-07 15:58 41.17573 40.83306 57 ft 22 kts 72°
2026-05-07 15:59 41.17702 40.83807 64 ft 93 kts 71°
2026-05-07 15:59 41.17981 40.84892 55 ft 153 kts 71°
2026-05-07 15:59 41.18365 40.86361 426 ft 174 kts 71°
2026-05-07 15:59 41.18767 40.87898 1182 ft 178 kts 71°
2026-05-07 16:00 41.19192 40.89403 1818 ft 173 kts 68°
2026-05-07 16:00 41.19602 40.90921 2167 ft 174 kts 71°
2026-05-07 16:00 41.19985 40.92454 2549 ft 176 kts 71°
2026-05-07 16:00 41.20371 40.93997 2920 ft 177 kts 71°
2026-05-07 16:01 41.20771 40.95597 3296 ft 192 kts 70°
2026-05-07 16:01 41.21566 40.97098 3652 ft 209 kts 34°
2026-05-07 16:01 41.22929 40.97842 4083 ft 218 kts
2026-05-07 16:01 41.24472 40.97844 4478 ft 228 kts 348°
2026-05-07 16:02 41.26025 40.97246 4879 ft 238 kts 341°
2026-05-07 16:02 41.27603 40.96516 5415 ft 242 kts 340°
2026-05-07 16:02 41.29142 40.95565 5920 ft 249 kts 321°
2026-05-07 16:02 41.30203 40.93728 6447 ft 258 kts 290°
2026-05-07 16:03 41.30379 40.91341 7033 ft 267 kts 259°
2026-05-07 16:03 41.29873 40.88924 7632 ft 276 kts 253°
2026-05-07 16:03 41.29300 40.86487 8172 ft 276 kts 253°
2026-05-07 16:03 41.28738 40.84051 8718 ft 275 kts 253°
2026-05-07 16:04 41.28187 40.81615 9267 ft 275 kts 253°
2026-05-07 16:04 41.27658 40.79158 9819 ft 277 kts 255°
2026-05-07 16:04 41.27185 40.76669 10367 ft 280 kts 256°
2026-05-07 16:04 41.26703 40.74046 10574 ft 304 kts 256°
2026-05-07 16:05 41.26189 40.71256 10766 ft 327 kts 256°
2026-05-07 16:05 41.25629 40.68238 11071 ft 344 kts 256°
2026-05-07 16:05 41.25045 40.65122 11671 ft 350 kts 256°
2026-05-07 16:05 41.24450 40.61971 12394 ft 353 kts 256°
2026-05-07 16:06 41.23850 40.58800 13102 ft 356 kts 256°
2026-05-07 16:06 41.23240 40.55594 13765 ft 359 kts 256°
2026-05-07 16:06 41.22624 40.52355 14419 ft 363 kts 256°
2026-05-07 16:06 41.22001 40.49087 15062 ft 367 kts 256°
2026-05-07 16:07 41.21371 40.45790 15695 ft 370 kts 256°
2026-05-07 16:07 41.20734 40.42463 16297 ft 373 kts 256°
2026-05-07 16:07 41.19952 40.39166 16889 ft 377 kts 248°
2026-05-07 16:07 41.18884 40.35971 17473 ft 380 kts 245°
2026-05-07 16:08 41.17764 40.32777 18042 ft 383 kts 245°
2026-05-07 16:08 41.16637 40.29553 18596 ft 387 kts 245°
2026-05-07 16:08 41.15514 40.26293 19139 ft 390 kts 246°
2026-05-07 16:08 41.14393 40.22998 19668 ft 393 kts 246°
2026-05-07 16:09 41.13268 40.19678 20186 ft 396 kts 246°
2026-05-07 16:09 41.12133 40.16334 20687 ft 399 kts 246°
2026-05-07 16:09 41.11376 40.14112 21013 ft 401 kts 246°
2026-05-07 16:09 41.09825 40.09569 21650 ft 405 kts 246°
2026-05-07 16:10 41.09053 40.07309 21956 ft 407 kts 246°
2026-05-07 16:10 41.07497 40.02762 22557 ft 411 kts 245°
2026-05-07 16:10 41.06698 40.00430 22853 ft 413 kts 245°
2026-05-07 16:10 41.05508 39.96955 23273 ft 416 kts 245°
2026-05-07 16:11 41.04308 39.93456 23701 ft 418 kts 245°
2026-05-07 16:11 41.03100 39.89937 24106 ft 421 kts 245°
2026-05-07 16:11 41.01881 39.86395 24503 ft 423 kts 245°
2026-05-07 16:11 41.00749 39.82836 24871 ft 426 kts 252°
2026-05-07 16:12 41.00081 39.79006 25234 ft 428 kts 262°
2026-05-07 16:12 40.99905 39.75065 25600 ft 431 kts 272°
2026-05-07 16:12 41.00203 39.71110 25951 ft 433 kts 277°
2026-05-07 16:12 41.00609 39.67144 26291 ft 435 kts 278°
2026-05-07 16:13 41.01033 39.63163 26625 ft 438 kts 278°
2026-05-07 16:13 41.01452 39.59152 26948 ft 440 kts 277°
2026-05-07 16:13 41.01853 39.55179 27252 ft 442 kts 277°
2026-05-07 16:13 41.02248 39.51121 27520 ft 445 kts 277°
2026-05-07 16:14 41.02637 39.47035 27772 ft 449 kts 277°
2026-05-07 16:14 41.03023 39.42927 28049 ft 451 kts 277°
2026-05-07 16:14 41.03408 39.38797 28363 ft 452 kts 277°
2026-05-07 16:14 41.03793 39.34661 28654 ft 454 kts 277°
2026-05-07 16:15 41.04179 39.30504 29009 ft 453 kts 277°
2026-05-07 16:15 41.04562 39.26360 29454 ft 451 kts 277°
2026-05-07 16:15 41.04941 39.22256 29884 ft 448 kts 277°
2026-05-07 16:15 41.05318 39.18156 30202 ft 449 kts 277°
2026-05-07 16:16 41.05694 39.14038 30458 ft 450 kts 277°
2026-05-07 16:16 41.06072 39.09930 30833 ft 448 kts 277°
2026-05-07 16:16 41.06450 39.05841 31236 ft 446 kts 277°
2026-05-07 16:16 41.06828 39.01762 31564 ft 445 kts 277°
2026-05-07 16:17 41.07204 38.97689 31835 ft 446 kts 277°
2026-05-07 16:17 41.07578 38.93606 32121 ft 446 kts 277°
2026-05-07 16:17 41.07945 38.89591 32435 ft 445 kts 277°
2026-05-07 16:17 41.08314 38.85529 32745 ft 444 kts 277°
2026-05-07 16:18 41.08682 38.81469 33020 ft 443 kts 277°
2026-05-07 16:18 41.09048 38.77409 33290 ft 443 kts 277°
2026-05-07 16:18 41.09413 38.73349 33573 ft 442 kts 277°
2026-05-07 16:18 41.09775 38.69304 33843 ft 441 kts 276°
2026-05-07 16:19 41.10128 38.65257 34009 ft 443 kts 276°
2026-05-07 16:19 41.10826 38.57100 34000 ft 446 kts 276°
2026-05-07 16:20 41.11508 38.48965 33990 ft 441 kts 276°
2026-05-07 16:20 41.12178 38.40899 34005 ft 439 kts 276°
2026-05-07 16:21 41.12844 38.32862 34002 ft 438 kts 276°
2026-05-07 16:21 41.13499 38.24871 34003 ft 438 kts 276°
2026-05-07 16:22 41.14157 38.16833 34003 ft 439 kts 276°
2026-05-07 16:22 41.14812 38.08784 34003 ft 439 kts 276°
2026-05-07 16:23 41.15463 38.00711 34003 ft 440 kts 276°
2026-05-07 16:23 41.16109 37.92629 34003 ft 441 kts 276°
2026-05-07 16:24 41.16762 37.84535 34002 ft 441 kts 276°
2026-05-07 16:24 41.17458 37.76435 34002 ft 442 kts 276°
2026-05-07 16:25 41.18150 37.68315 34002 ft 442 kts 276°
2026-05-07 16:25 41.18815 37.60245 34001 ft 443 kts 275°
2026-05-07 16:26 41.19229 37.52087 34002 ft 443 kts 275°
2026-05-07 16:26 41.19824 37.43948 34002 ft 443 kts 276°
2026-05-07 16:27 41.20461 37.35824 34001 ft 442 kts 276°
2026-05-07 16:27 41.21067 37.27681 34001 ft 442 kts 275°
2026-05-07 16:28 41.21659 37.19612 34001 ft 442 kts 276°
2026-05-07 16:28 41.22291 37.11491 34001 ft 441 kts 276°
2026-05-07 16:29 41.22925 37.03377 34001 ft 441 kts 276°
2026-05-07 16:29 41.23547 36.95272 34001 ft 441 kts 276°
2026-05-07 16:30 41.24161 36.87174 34001 ft 441 kts 276°
2026-05-07 16:30 41.24768 36.79085 34001 ft 440 kts 276°
2026-05-07 16:31 41.25371 36.70979 34001 ft 440 kts 275°
2026-05-07 16:31 41.25968 36.62880 34002 ft 440 kts 275°
2026-05-07 16:32 41.26096 36.54811 34004 ft 440 kts 262°
2026-05-07 16:32 41.24498 36.46989 34014 ft 439 kts 250°
2026-05-07 16:33 41.22322 36.39389 34002 ft 440 kts 249°
2026-05-07 16:33 41.20154 36.31775 34003 ft 441 kts 250°
2026-05-07 16:34 41.18015 36.24134 34003 ft 442 kts 250°
2026-05-07 16:34 41.15873 36.16456 34006 ft 445 kts 250°
2026-05-07 16:35 41.13725 36.08776 34012 ft 449 kts 250°
2026-05-07 16:35 41.11520 36.00922 34010 ft 458 kts 250°
2026-05-07 16:36 41.09272 35.92942 34007 ft 466 kts 249°
2026-05-07 16:36 41.06935 35.84904 33999 ft 469 kts 249°
2026-05-07 16:37 41.04560 35.76873 33993 ft 463 kts 249°
2026-05-07 16:37 41.02254 35.69048 33997 ft 457 kts 249°
2026-05-07 16:38 40.99985 35.61163 34007 ft 460 kts 249°
2026-05-07 16:38 40.97724 35.53217 34001 ft 462 kts 249°
2026-05-07 16:39 40.95439 35.45253 34000 ft 464 kts 249°
2026-05-07 16:39 40.93126 35.37234 33912 ft 468 kts 249°
2026-05-07 16:40 40.90818 35.29247 33683 ft 461 kts 249°
2026-05-07 16:40 40.89674 35.25297 33440 ft 460 kts 249°
2026-05-07 16:40 40.88529 35.21345 33198 ft 460 kts 249°
2026-05-07 16:40 40.87383 35.17397 32894 ft 462 kts 249°
2026-05-07 16:41 40.86221 35.13401 32574 ft 468 kts 249°
2026-05-07 16:41 40.85043 35.09356 32254 ft 474 kts 249°
2026-05-07 16:41 40.83861 35.05302 31925 ft 470 kts 249°
2026-05-07 16:41 40.82694 35.01307 31603 ft 465 kts 249°
2026-05-07 16:42 40.81530 34.97330 31277 ft 462 kts 249°
2026-05-07 16:42 40.80374 34.93385 30953 ft 459 kts 249°
2026-05-07 16:42 40.79227 34.89476 30617 ft 456 kts 249°
2026-05-07 16:42 40.78099 34.85635 30310 ft 453 kts 249°
2026-05-07 16:43 40.76960 34.81763 29980 ft 452 kts 249°
2026-05-07 16:43 40.75823 34.77904 29661 ft 450 kts 249°
2026-05-07 16:43 40.74690 34.74064 29341 ft 449 kts 249°
2026-05-07 16:43 40.73549 34.70234 29011 ft 447 kts 248°
2026-05-07 16:44 40.72402 34.66430 28680 ft 446 kts 248°
2026-05-07 16:44 40.71252 34.62633 28366 ft 446 kts 248°
2026-05-07 16:44 40.70103 34.58843 28039 ft 444 kts 248°
2026-05-07 16:44 40.68958 34.55072 27715 ft 443 kts 248°
2026-05-07 16:45 40.67816 34.51306 27397 ft 441 kts 248°
2026-05-07 16:45 40.66677 34.47557 27065 ft 439 kts 248°
2026-05-07 16:45 40.65547 34.43839 26733 ft 436 kts 248°
2026-05-07 16:45 40.64437 34.40192 26411 ft 433 kts 248°
2026-05-07 16:46 40.63320 34.36523 26092 ft 431 kts 248°
2026-05-07 16:46 40.62207 34.32874 25776 ft 428 kts 248°
2026-05-07 16:46 40.61098 34.29247 25534 ft 430 kts 248°
2026-05-07 16:46 40.59972 34.25563 25298 ft 438 kts 248°
2026-05-07 16:47 40.58832 34.21844 25045 ft 437 kts 248°
2026-05-07 16:47 40.57702 34.18159 24792 ft 432 kts 248°
2026-05-07 16:47 40.56581 34.14511 24537 ft 429 kts 248°
2026-05-07 16:47 40.55466 34.10886 24283 ft 426 kts 248°
2026-05-07 16:48 40.54357 34.07284 24033 ft 424 kts 248°
2026-05-07 16:48 40.53254 34.03704 23782 ft 422 kts 248°
2026-05-07 16:48 40.52152 34.00134 23530 ft 421 kts 248°
2026-05-07 16:48 40.51049 33.96567 23285 ft 421 kts 248°
2026-05-07 16:49 40.49981 33.92992 23041 ft 420 kts 250°
2026-05-07 16:49 40.49050 33.89359 22788 ft 420 kts 252°
2026-05-07 16:49 40.48178 33.85698 22541 ft 419 kts 252°
2026-05-07 16:49 40.47298 33.82041 22293 ft 418 kts 252°
2026-05-07 16:50 40.46402 33.78403 22041 ft 417 kts 252°
2026-05-07 16:50 40.45341 33.74880 21760 ft 416 kts 239°
2026-05-07 16:50 40.43542 33.71995 21523 ft 415 kts 220°
2026-05-07 16:50 40.41153 33.69917 21288 ft 413 kts 205°
2026-05-07 16:51 40.38421 33.68806 21041 ft 411 kts 191°
2026-05-07 16:51 40.35607 33.68167 20792 ft 410 kts 189°
2026-05-07 16:51 40.32789 33.67577 20551 ft 409 kts 189°
2026-05-07 16:51 40.29989 33.66978 20298 ft 407 kts 189°
2026-05-07 16:52 40.27194 33.66349 20059 ft 406 kts 190°
2026-05-07 16:52 40.24428 33.65707 19885 ft 403 kts 190°
2026-05-07 16:52 40.21681 33.65054 19702 ft 400 kts 192°
2026-05-07 16:52 40.19027 33.63994 19529 ft 398 kts 202°
2026-05-07 16:53 40.16562 33.62392 19407 ft 396 kts 212°
2026-05-07 16:53 40.14317 33.60312 19291 ft 394 kts 217°
2026-05-07 16:53 40.12135 33.58148 19164 ft 394 kts 217°
2026-05-07 16:53 40.09947 33.55984 19010 ft 395 kts 217°
2026-05-07 16:54 40.07765 33.53865 18853 ft 397 kts 217°
2026-05-07 16:54 40.05538 33.51724 18683 ft 394 kts 216°
2026-05-07 16:54 40.03351 33.49632 18511 ft 384 kts 216°
2026-05-07 16:54 40.01236 33.47608 18362 ft 372 kts 216°
2026-05-07 16:55 39.99179 33.45641 18212 ft 361 kts 216°
2026-05-07 16:55 39.97181 33.43730 18062 ft 350 kts 216°
2026-05-07 16:55 39.95243 33.41878 17907 ft 341 kts 216°
2026-05-07 16:55 39.93353 33.40074 17747 ft 332 kts 216°
2026-05-07 16:56 39.91579 33.38202 17540 ft 325 kts 229°
2026-05-07 16:56 39.90442 33.35723 17361 ft 317 kts 252°
2026-05-07 16:56 39.90553 33.30238 17004 ft 302 kts 291°
2026-05-07 16:57 39.90606 33.30060 16988 ft 302 kts 293°
2026-05-07 16:57 39.91624 33.27771 16817 ft 295 kts 305°
2026-05-07 16:57 39.92839 33.25643 16637 ft 289 kts 307°
2026-05-07 16:57 39.94049 33.23577 16445 ft 285 kts 307°
2026-05-07 16:58 39.95236 33.21521 16279 ft 283 kts 306°
2026-05-07 16:58 39.96412 33.19469 16104 ft 282 kts 306°
2026-05-07 16:58 39.97183 33.18111 15987 ft 281 kts 306°
2026-05-07 16:58 39.98717 33.15398 15757 ft 279 kts 306°
2026-05-07 16:59 39.99864 33.13364 15581 ft 278 kts 306°
2026-05-07 16:59 40.01009 33.11334 15400 ft 277 kts 307°
2026-05-07 16:59 40.02423 33.09651 15190 ft 277 kts 333°
2026-05-07 16:59 40.04259 33.09013 15026 ft 275 kts
2026-05-07 17:00 40.06112 33.09517 14858 ft 274 kts 25°
2026-05-07 17:00 40.07723 33.10826 14709 ft 272 kts 35°
2026-05-07 17:00 40.08741 33.11794 14592 ft 273 kts 36°
2026-05-07 17:00 40.10786 33.13792 14369 ft 276 kts 36°
2026-05-07 17:01 40.11807 33.14791 14253 ft 278 kts 36°
2026-05-07 17:01 40.13365 33.16308 14027 ft 280 kts 36°
2026-05-07 17:01 40.15452 33.18329 13732 ft 282 kts 36°
2026-05-07 17:01 40.17029 33.19850 13507 ft 281 kts 36°
2026-05-07 17:02 40.18085 33.20867 13345 ft 278 kts 36°
2026-05-07 17:02 40.19637 33.22359 13118 ft 275 kts 36°
2026-05-07 17:02 40.21172 33.23833 12891 ft 272 kts 36°
2026-05-07 17:02 40.22685 33.25287 12653 ft 269 kts 36°
2026-05-07 17:03 40.24194 33.26737 12428 ft 267 kts 36°
2026-05-07 17:03 40.25685 33.28170 12205 ft 265 kts 36°
2026-05-07 17:03 40.27175 33.29602 11976 ft 264 kts 36°
2026-05-07 17:03 40.28631 33.31002 11754 ft 262 kts 36°
2026-05-07 17:04 40.30097 33.32413 11530 ft 261 kts 36°
2026-05-07 17:04 40.31555 33.33817 11302 ft 259 kts 36°
2026-05-07 17:04 40.32999 33.35208 11074 ft 256 kts 36°
2026-05-07 17:04 40.34425 33.36582 10847 ft 253 kts 36°
2026-05-07 17:05 40.35836 33.37942 10615 ft 251 kts 36°
2026-05-07 17:05 40.37239 33.39286 10385 ft 248 kts 32°
2026-05-07 17:05 40.38823 33.40013 10167 ft 240 kts
2026-05-07 17:05 40.40406 33.39534 9964 ft 233 kts 329°
2026-05-07 17:06 40.41584 33.38116 9751 ft 230 kts 302°
2026-05-07 17:06 40.42110 33.36160 9514 ft 229 kts 274°
2026-05-07 17:06 40.41893 33.34116 9297 ft 228 kts 248°
2026-05-07 17:06 40.41044 33.32369 9077 ft 228 kts 229°
2026-05-07 17:07 40.39963 33.30854 8858 ft 228 kts 226°
2026-05-07 17:07 40.38856 33.29389 8637 ft 228 kts 225°
2026-05-07 17:07 40.37735 33.27909 8408 ft 229 kts 225°
2026-05-07 17:07 40.36614 33.26423 8176 ft 230 kts 226°
2026-05-07 17:08 40.35489 33.24923 7934 ft 231 kts 226°
2026-05-07 17:08 40.34366 33.23421 7679 ft 230 kts 226°
2026-05-07 17:08 40.33257 33.21934 7414 ft 226 kts 226°
2026-05-07 17:08 40.32170 33.20474 7153 ft 221 kts 226°
2026-05-07 17:09 40.31113 33.19053 6897 ft 215 kts 226°
2026-05-07 17:09 40.30085 33.17671 6633 ft 209 kts 226°
2026-05-07 17:09 40.29081 33.16322 6369 ft 204 kts 226°
2026-05-07 17:09 40.28097 33.15002 6108 ft 200 kts 226°
2026-05-07 17:10 40.27145 33.13724 5876 ft 192 kts 226°
2026-05-07 17:10 40.26231 33.12500 5606 ft 183 kts 224°
2026-05-07 17:10 40.25283 33.11487 5373 ft 171 kts 217°
2026-05-07 17:10 40.24381 33.10622 5186 ft 155 kts 216°
2026-05-07 17:11 40.23512 33.09809 4926 ft 152 kts 216°
2026-05-07 17:11 40.22653 33.09002 4669 ft 152 kts 216°
2026-05-07 17:11 40.21792 33.08191 4423 ft 152 kts 216°
2026-05-07 17:11 40.20936 33.07383 4193 ft 151 kts 216°
2026-05-07 17:12 40.20087 33.06578 4021 ft 151 kts 216°
2026-05-07 17:12 40.19238 33.05771 3862 ft 151 kts 216°
2026-05-07 17:12 40.18388 33.04964 3701 ft 151 kts 216°
2026-05-07 17:12 40.17539 33.04157 3542 ft 150 kts 216°
2026-05-07 17:13 40.16697 33.03357 3449 ft 150 kts 216°
2026-05-07 17:13 40.15849 33.02550 3333 ft 151 kts 216°
2026-05-07 17:13 40.15003 33.01747 3220 ft 149 kts 216°
2026-05-07 17:13 40.14161 33.00946 3164 ft 150 kts 216°
2026-05-07 17:14 40.13319 33.00145 3129 ft 147 kts 216°
2026-05-07 17:14 40.12603 32.99449 3120 ft 92 kts 217°
2026-05-07 17:14 40.12403 32.99265 3118 ft 18 kts 208°
2026-05-07 17:14 40.12288 32.99205 3117 ft 17 kts 197°
2026-05-07 17:15 40.12171 32.99189 3116 ft 17 kts 179°
2026-05-07 17:15 40.12056 32.99182 3115 ft 16 kts 188°
2026-05-07 17:15 40.11950 32.99143 3113 ft 16 kts 210°
2026-05-07 17:15 40.11862 32.99065 3113 ft 15 kts 210°
2026-05-07 17:16 40.11768 32.99077 3112 ft 13 kts 148°
2026-05-07 17:16 40.11706 32.99124 3112 ft 8 kts 149°
2026-05-07 17:16 40.11667 32.99153 3112 ft 3 kts 150°
2026-05-07 17:16 40.11653 32.99164 3112 ft 2 kts 150°
2026-05-07 17:17 40.11648 32.99168 3112 ft 0 kts 150°